Check out our new BloomSky Weather System.

Active alerts

Houston, TX
  Details for Houston, TX Dense Fog Advisory


Thunder radar  blitzortung!


Rain radar more information rain snow radar


Visit our other weather sites:

Template documentation
and downloads

And another site



Weather Underground History page Text

Daily Summary for March 24, 2017 Units:  English    Metric   Both
« Previous Day
Next Day »
Daily Weekly Monthly Yearly Custom
  High: Low: Average:
Temperature: 80.1 °F 66.6 °F 73.1 °F
Dew Point: 70.2 °F 63.1 °F 66.6 °F
Humidity: 95 % 64 % 80 %
Wind Speed: 18.0 mph 0.0 mph 7.4 mph
Wind Gust: 30.0 mph - -
Wind:- - SSE
Pressure: 30.01 in 29.87 in -
Precipitation: 0.25 in    
Historical Graphs
 
 
Tabular Data for March 24, 2017
Time Temperature Dew Point Pressure Wind Wind Speed Wind Gust Humidity Rainfall Rate (Hourly)
00:00 70.0 °F 65.3 °F 30.01 in SE 7.0 mph 16.0 mph 85 % 0.00 in
00:05 70.0 °F 65.3 °F 30.01 in SE 7.0 mph 16.0 mph 85 % 0.00 in
00:10 70.0 °F 65.3 °F 30.01 in SE 9.0 mph 16.0 mph 85 % 0.00 in
00:15 70.2 °F 65.5 °F 30.01 in SE 9.0 mph 16.0 mph 85 % 0.00 in
00:20 70.2 °F 65.5 °F 30.01 in SSW 6.0 mph 16.0 mph 85 % 0.00 in
00:25 70.2 °F 65.5 °F 30.01 in SE 5.0 mph 15.0 mph 85 % 0.00 in
00:30 70.2 °F 65.5 °F 30.01 in SE 3.0 mph 15.0 mph 85 % 0.00 in
00:35 70.2 °F 65.5 °F 30.01 in SE 6.0 mph 14.0 mph 85 % 0.00 in
00:41 70.2 °F 65.5 °F 30.01 in SSE 8.0 mph 13.0 mph 85 % 0.00 in
00:46 70.2 °F 65.5 °F 30.01 in SE 4.0 mph 13.0 mph 85 % 0.00 in
00:56 70.2 °F 65.8 °F 30.01 in SSE 7.0 mph 15.0 mph 86 % 0.00 in
01:06 70.2 °F 65.5 °F 30.00 in SE 6.0 mph 15.0 mph 85 % 0.00 in
01:11 70.2 °F 65.5 °F 29.99 in South 4.0 mph 15.0 mph 85 % 0.00 in
01:16 70.2 °F 65.8 °F 30.00 in SSE 5.0 mph 14.0 mph 86 % 0.00 in
01:21 70.2 °F 65.5 °F 29.99 in ESE 6.0 mph 15.0 mph 85 % 0.00 in
01:26 70.0 °F 65.7 °F 29.99 in ESE 6.0 mph 15.0 mph 86 % 0.00 in
01:31 70.2 °F 65.8 °F 29.99 in South 9.0 mph 17.0 mph 86 % 0.00 in
01:33 70.2 °F 65.8 °F 29.99 in ESE 9.0 mph 17.0 mph 86 % 0.00 in
01:38 70.2 °F 65.8 °F 29.99 in SE 6.0 mph 17.0 mph 86 % 0.00 in
01:43 70.3 °F 66.0 °F 29.99 in SSE 4.0 mph 17.0 mph 86 % 0.00 in
01:48 70.3 °F 66.0 °F 29.99 in SE 4.0 mph 16.0 mph 86 % 0.00 in
01:53 70.3 °F 66.0 °F 29.99 in South 9.0 mph 16.0 mph 86 % 0.00 in
01:58 70.5 °F 65.8 °F 29.98 in ESE 11.0 mph 17.0 mph 85 % 0.00 in
02:03 70.5 °F 65.8 °F 29.98 in South 13.0 mph 18.0 mph 85 % 0.00 in
02:08 70.5 °F 65.8 °F 29.98 in SSE 8.0 mph 18.0 mph 85 % 0.00 in
02:13 70.5 °F 65.8 °F 29.98 in SSE 7.0 mph 18.0 mph 85 % 0.00 in
02:18 70.5 °F 66.2 °F 29.98 in ESE 13.0 mph 15.0 mph 86 % 0.00 in
02:23 70.5 °F 65.8 °F 29.98 in East 11.0 mph 15.0 mph 85 % 0.00 in
02:28 70.5 °F 65.8 °F 29.99 in ESE 7.0 mph 15.0 mph 85 % 0.00 in
02:34 70.5 °F 65.8 °F 29.99 in South 8.0 mph 15.0 mph 85 % 0.00 in
02:39 70.5 °F 65.8 °F 29.98 in SSE 9.0 mph 16.0 mph 85 % 0.00 in
02:40 70.5 °F 65.8 °F 29.98 in ESE 6.0 mph 16.0 mph 85 % 0.00 in
02:45 70.5 °F 65.8 °F 29.98 in South 7.0 mph 17.0 mph 85 % 0.00 in
02:50 70.5 °F 66.2 °F 29.98 in ESE 13.0 mph 17.0 mph 86 % 0.00 in
02:55 70.5 °F 66.2 °F 29.98 in East 6.0 mph 17.0 mph 86 % 0.00 in
03:00 70.5 °F 66.2 °F 29.98 in SE 7.0 mph 17.0 mph 86 % 0.00 in
03:05 70.5 °F 66.2 °F 29.97 in East 7.0 mph 15.0 mph 86 % 0.00 in
03:10 70.5 °F 66.2 °F 29.97 in SE 8.0 mph 15.0 mph 86 % 0.00 in
03:15 70.5 °F 66.2 °F 29.96 in SE 8.0 mph 15.0 mph 86 % 0.00 in
03:20 70.3 °F 66.2 °F 29.96 in SE 7.0 mph 15.0 mph 87 % 0.00 in
03:25 70.3 °F 66.2 °F 29.96 in SSE 6.0 mph 15.0 mph 87 % 0.00 in
03:30 70.3 °F 66.2 °F 29.96 in SSE 9.0 mph 15.0 mph 87 % 0.00 in
03:35 70.3 °F 66.2 °F 29.95 in South 8.0 mph 17.0 mph 87 % 0.00 in
03:40 70.3 °F 66.2 °F 29.96 in South 6.0 mph 17.0 mph 87 % 0.00 in
03:45 70.3 °F 66.2 °F 29.95 in SE 5.0 mph 17.0 mph 87 % 0.00 in
03:50 70.3 °F 66.6 °F 29.95 in South 6.0 mph 15.0 mph 88 % 0.00 in
03:55 70.3 °F 66.6 °F 29.95 in South 8.0 mph 15.0 mph 88 % 0.00 in
04:00 70.3 °F 66.6 °F 29.95 in South 6.0 mph 15.0 mph 88 % 0.00 in
04:02 70.3 °F 66.6 °F 29.95 in South 5.0 mph 15.0 mph 88 % 0.00 in
04:07 70.2 °F 66.4 °F 29.95 in SSE 4.0 mph 14.0 mph 88 % 0.00 in
04:12 70.2 °F 66.4 °F 29.95 in SSE 5.0 mph 15.0 mph 88 % 0.00 in
04:17 70.2 °F 66.4 °F 29.95 in SE 7.0 mph 15.0 mph 88 % 0.00 in
04:22 70.2 °F 66.4 °F 29.94 in South 6.0 mph 15.0 mph 88 % 0.00 in
04:27 70.2 °F 66.4 °F 29.94 in SE 4.0 mph 16.0 mph 88 % 0.00 in
04:32 70.2 °F 66.0 °F 29.94 in SSE 2.0 mph 16.0 mph 87 % 0.00 in
04:37 70.2 °F 66.0 °F 29.94 in SSE 6.0 mph 16.0 mph 87 % 0.00 in
04:42 70.2 °F 66.0 °F 29.94 in SE 6.0 mph 11.0 mph 87 % 0.00 in
04:47 70.2 °F 66.0 °F 29.93 in SSE 7.0 mph 13.0 mph 87 % 0.00 in
04:52 70.2 °F 66.0 °F 29.94 in SSE 5.0 mph 13.0 mph 87 % 0.00 in
04:57 70.2 °F 66.0 °F 29.94 in SSE 7.0 mph 13.0 mph 87 % 0.00 in
05:02 70.2 °F 65.8 °F 29.93 in SE 7.0 mph 18.0 mph 86 % 0.00 in
05:07 70.2 °F 65.8 °F 29.93 in ESE 7.0 mph 18.0 mph 86 % 0.00 in
05:12 70.2 °F 65.8 °F 29.93 in ESE 12.0 mph 18.0 mph 86 % 0.00 in
05:17 70.2 °F 65.8 °F 29.93 in SE 6.0 mph 14.0 mph 86 % 0.00 in
05:22 70.2 °F 65.8 °F 29.93 in SE 12.0 mph 14.0 mph 86 % 0.00 in
05:27 70.2 °F 65.5 °F 29.93 in SSE 6.0 mph 16.0 mph 85 % 0.00 in
05:32 70.2 °F 65.5 °F 29.93 in ESE 11.0 mph 16.0 mph 85 % 0.00 in
05:37 70.2 °F 65.5 °F 29.93 in SE 7.0 mph 16.0 mph 85 % 0.00 in
05:42 70.2 °F 65.5 °F 29.93 in ESE 6.0 mph 14.0 mph 85 % 0.00 in
05:47 70.2 °F 65.5 °F 29.93 in SSE 9.0 mph 14.0 mph 85 % 0.00 in
05:52 70.2 °F 65.5 °F 29.93 in SE 5.0 mph 14.0 mph 85 % 0.00 in
05:57 70.2 °F 65.1 °F 29.93 in ESE 5.0 mph 15.0 mph 84 % 0.00 in
06:02 70.2 °F 65.1 °F 29.93 in ESE 7.0 mph 15.0 mph 84 % 0.00 in
06:07 70.2 °F 65.1 °F 29.93 in SSE 2.0 mph 15.0 mph 84 % 0.00 in
06:12 70.2 °F 64.8 °F 29.93 in South 6.0 mph 14.0 mph 83 % 0.00 in
06:18 70.3 °F 64.9 °F 29.93 in SSW 7.0 mph 14.0 mph 83 % 0.00 in
06:23 70.2 °F 64.8 °F 29.93 in SE 7.0 mph 14.0 mph 83 % 0.00 in
06:28 70.3 °F 64.9 °F 29.93 in SSE 11.0 mph 17.0 mph 83 % 0.00 in
06:38 70.5 °F 64.8 °F 29.94 in SSE 10.0 mph 17.0 mph 82 % 0.00 in
06:43 70.5 °F 64.8 °F 29.94 in SE 2.0 mph 17.0 mph 82 % 0.00 in
06:48 70.5 °F 64.8 °F 29.94 in South 5.0 mph 17.0 mph 82 % 0.00 in
06:53 70.5 °F 64.8 °F 29.94 in ESE 10.0 mph 17.0 mph 82 % 0.00 in
06:58 70.5 °F 64.8 °F 29.94 in SSE 9.0 mph 13.0 mph 82 % 0.00 in
07:03 70.7 °F 64.9 °F 29.94 in SSE 4.0 mph 16.0 mph 82 % 0.00 in
07:08 70.9 °F 65.1 °F 29.94 in SSW 5.0 mph 16.0 mph 82 % 0.00 in
07:13 70.9 °F 65.1 °F 29.94 in East 6.0 mph 16.0 mph 82 % 0.00 in
07:18 70.9 °F 65.1 °F 29.94 in SE 12.0 mph 14.0 mph 82 % 0.00 in
07:23 70.9 °F 65.1 °F 29.94 in SE 7.0 mph 17.0 mph 82 % 0.00 in
07:28 70.9 °F 65.1 °F 29.95 in South 6.0 mph 17.0 mph 82 % 0.00 in
07:33 70.9 °F 65.1 °F 29.95 in SSW 6.0 mph 17.0 mph 82 % 0.00 in
07:38 70.9 °F 65.1 °F 29.95 in SE 9.0 mph 14.0 mph 82 % 0.00 in
07:39 71.1 °F 65.3 °F 29.95 in SSE 8.0 mph 14.0 mph 82 % 0.00 in
07:44 71.1 °F 65.3 °F 29.95 in South 6.0 mph 14.0 mph 82 % 0.00 in
07:50 71.1 °F 65.7 °F 29.96 in SE 3.0 mph 14.0 mph 83 % 0.00 in
07:55 71.1 °F 65.7 °F 29.96 in South 5.0 mph 15.0 mph 83 % 0.00 in
08:00 71.1 °F 65.7 °F 29.97 in SE 7.0 mph 17.0 mph 83 % 0.00 in
08:05 71.1 °F 65.7 °F 29.97 in SE 4.0 mph 17.0 mph 83 % 0.00 in
08:06 71.1 °F 65.7 °F 29.97 in SSW 8.0 mph 17.0 mph 83 % 0.00 in
08:11 71.2 °F 65.8 °F 29.98 in SSE 2.0 mph 13.0 mph 83 % 0.00 in
08:16 71.2 °F 65.8 °F 29.99 in SSE 2.0 mph 12.0 mph 83 % 0.00 in
08:21 71.2 °F 65.8 °F 29.99 in ESE 5.0 mph 12.0 mph 83 % 0.00 in
08:26 71.2 °F 65.8 °F 29.99 in SE 10.0 mph 12.0 mph 83 % 0.00 in
08:31 71.2 °F 65.8 °F 29.99 in SE 6.0 mph 11.0 mph 83 % 0.00 in
08:36 71.4 °F 66.0 °F 29.99 in South 12.0 mph 13.0 mph 83 % 0.00 in
08:41 71.4 °F 66.0 °F 30.00 in SE 6.0 mph 13.0 mph 83 % 0.00 in
08:46 71.4 °F 66.0 °F 30.00 in ESE 5.0 mph 13.0 mph 83 % 0.00 in
08:51 71.6 °F 66.2 °F 30.00 in SSE 5.0 mph 12.0 mph 83 % 0.00 in
08:56 71.8 °F 66.4 °F 30.00 in East 5.0 mph 10.0 mph 83 % 0.00 in
09:01 72.0 °F 66.6 °F 30.00 in South 4.0 mph 10.0 mph 83 % 0.00 in
09:06 72.1 °F 66.7 °F 30.00 in SE 6.0 mph 10.0 mph 83 % 0.00 in
09:11 72.3 °F 66.6 °F 30.00 in ENE 8.0 mph 12.0 mph 82 % 0.00 in
09:16 73.0 °F 66.9 °F 30.00 in SSE 5.0 mph 12.0 mph 81 % 0.00 in
09:21 73.2 °F 66.7 °F 30.01 in East 10.0 mph 12.0 mph 80 % 0.00 in
09:26 73.2 °F 66.4 °F 30.01 in SE 4.0 mph 10.0 mph 79 % 0.00 in
09:31 73.4 °F 66.6 °F 30.01 in SE 7.0 mph 12.0 mph 79 % 0.00 in
09:36 73.4 °F 66.6 °F 30.01 in SE 4.0 mph 16.0 mph 79 % 0.00 in
09:41 73.6 °F 66.7 °F 30.01 in SSE 5.0 mph 16.0 mph 79 % 0.00 in
09:46 73.8 °F 66.4 °F 30.01 in East 4.0 mph 16.0 mph 78 % 0.00 in
09:51 73.8 °F 66.4 °F 30.01 in SE 10.0 mph 13.0 mph 78 % 0.00 in
09:56 73.9 °F 66.6 °F 30.01 in SE 7.0 mph 15.0 mph 78 % 0.00 in
10:01 73.9 °F 66.2 °F 30.01 in ESE 13.0 mph 15.0 mph 77 % 0.00 in
10:06 74.3 °F 66.9 °F 30.01 in ESE 3.0 mph 15.0 mph 78 % 0.00 in
10:11 74.8 °F 66.7 °F 30.01 in SE 12.0 mph 15.0 mph 76 % 0.00 in
10:16 75.0 °F 66.9 °F 30.01 in ESE 14.0 mph 15.0 mph 76 % 0.00 in
10:21 75.0 °F 66.6 °F 30.01 in SSE 11.0 mph 17.0 mph 75 % 0.00 in
10:27 75.2 °F 66.7 °F 30.01 in SE 11.0 mph 18.0 mph 75 % 0.00 in
10:32 75.4 °F 66.9 °F 30.01 in SSE 9.0 mph 18.0 mph 75 % 0.00 in
10:37 75.7 °F 67.6 °F 30.01 in SSW 6.0 mph 18.0 mph 76 % 0.00 in
10:42 75.7 °F 66.9 °F 30.01 in SE 10.0 mph 16.0 mph 74 % 0.00 in
10:47 75.6 °F 66.7 °F 30.01 in SSE 4.0 mph 15.0 mph 74 % 0.00 in
10:52 75.6 °F 67.1 °F 30.01 in South 13.0 mph 15.0 mph 75 % 0.00 in
10:57 75.9 °F 67.5 °F 30.01 in SE 4.0 mph 15.0 mph 75 % 0.00 in
11:02 76.6 °F 67.3 °F 30.01 in ESE 8.0 mph 17.0 mph 73 % 0.00 in
11:07 76.6 °F 66.6 °F 30.01 in ESE 12.0 mph 20.0 mph 71 % 0.00 in
11:12 76.3 °F 66.6 °F 30.01 in ESE 13.0 mph 20.0 mph 72 % 0.00 in
11:17 76.3 °F 66.9 °F 30.01 in ESE 7.0 mph 20.0 mph 73 % 0.00 in
11:22 76.8 °F 66.7 °F 30.01 in ESE 12.0 mph 16.0 mph 71 % 0.00 in
11:27 76.8 °F 66.7 °F 30.01 in ESE 14.0 mph 16.0 mph 71 % 0.00 in
11:32 76.8 °F 66.7 °F 30.01 in SE 7.0 mph 19.0 mph 71 % 0.00 in
11:37 76.8 °F 65.8 °F 30.01 in ESE 7.0 mph 19.0 mph 69 % 0.00 in
11:42 76.5 °F 66.0 °F 30.01 in SSE 8.0 mph 20.0 mph 70 % 0.00 in
11:52 76.3 °F 65.8 °F 30.01 in SSE 7.0 mph 20.0 mph 70 % 0.00 in
11:57 76.3 °F 65.8 °F 30.01 in South 6.0 mph 18.0 mph 70 % 0.00 in
12:02 76.3 °F 65.8 °F 30.01 in SSE 12.0 mph 16.0 mph 70 % 0.00 in
12:07 76.3 °F 65.8 °F 30.01 in SSE 10.0 mph 16.0 mph 70 % 0.00 in
12:12 76.6 °F 66.2 °F 30.00 in SSE 7.0 mph 16.0 mph 70 % 0.00 in
12:22 77.2 °F 65.8 °F 30.01 in ESE 11.0 mph 16.0 mph 68 % 0.00 in
12:27 77.7 °F 66.7 °F 30.00 in SSW 14.0 mph 16.0 mph 69 % 0.00 in
12:32 78.4 °F 66.6 °F 30.00 in SSW 8.0 mph 17.0 mph 67 % 0.00 in
12:37 78.6 °F 65.8 °F 30.00 in SE 11.0 mph 17.0 mph 65 % 0.00 in
12:42 78.4 °F 66.2 °F 30.00 in SE 13.0 mph 17.0 mph 66 % 0.00 in
12:47 78.3 °F 65.5 °F 30.00 in SSE 15.0 mph 16.0 mph 65 % 0.00 in
12:52 78.4 °F 65.7 °F 30.00 in SSE 8.0 mph 23.0 mph 65 % 0.00 in
12:57 78.6 °F 66.4 °F 29.99 in South 6.0 mph 23.0 mph 66 % 0.00 in
13:02 79.5 °F 66.2 °F 29.99 in ESE 9.0 mph 23.0 mph 64 % 0.00 in
13:07 79.9 °F 66.6 °F 29.99 in SE 16.0 mph 19.0 mph 64 % 0.00 in
13:12 79.3 °F 66.0 °F 30.00 in SSE 5.0 mph 19.0 mph 64 % 0.00 in
13:17 79.0 °F 66.2 °F 30.00 in ESE 9.0 mph 19.0 mph 65 % 0.00 in
13:22 78.6 °F 65.8 °F 30.00 in SSW 10.0 mph 19.0 mph 65 % 0.00 in
13:27 78.6 °F 65.5 °F 29.99 in SE 8.0 mph 17.0 mph 64 % 0.00 in
13:32 78.8 °F 66.0 °F 29.99 in SSE 13.0 mph 17.0 mph 65 % 0.00 in
13:37 78.8 °F 66.0 °F 29.99 in SE 7.0 mph 17.0 mph 65 % 0.00 in
13:42 78.4 °F 66.2 °F 29.99 in SSE 12.0 mph 17.0 mph 66 % 0.00 in
13:47 78.1 °F 66.7 °F 29.99 in SE 10.0 mph 20.0 mph 68 % 0.00 in
13:57 77.9 °F 66.6 °F 29.98 in SSE 10.0 mph 20.0 mph 68 % 0.00 in
14:02 78.3 °F 66.7 °F 29.97 in SE 12.0 mph 17.0 mph 68 % 0.00 in
14:07 78.4 °F 66.9 °F 29.96 in SSE 8.0 mph 17.0 mph 68 % 0.00 in
14:13 79.2 °F 66.7 °F 29.97 in ESE 18.0 mph 18.0 mph 66 % 0.00 in
14:18 79.5 °F 66.7 °F 29.96 in SE 7.0 mph 24.0 mph 65 % 0.00 in
14:23 80.1 °F 67.6 °F 29.96 in SSE 12.0 mph 24.0 mph 66 % 0.00 in
14:28 79.9 °F 67.5 °F 29.96 in SE 10.0 mph 24.0 mph 66 % 0.00 in
14:33 79.5 °F 66.7 °F 29.95 in SSE 6.0 mph 18.0 mph 65 % 0.00 in
14:38 79.5 °F 67.1 °F 29.95 in SE 6.0 mph 18.0 mph 66 % 0.00 in
14:43 79.2 °F 65.8 °F 29.94 in SE 10.0 mph 24.0 mph 64 % 0.00 in
14:48 79.3 °F 66.6 °F 29.94 in East 12.0 mph 24.0 mph 65 % 0.00 in
14:53 79.0 °F 65.8 °F 29.94 in SE 14.0 mph 24.0 mph 64 % 0.00 in
14:58 78.8 °F 66.0 °F 29.93 in SE 14.0 mph 21.0 mph 65 % 0.00 in
15:06 78.8 °F 65.7 °F 29.92 in South 9.0 mph 20.0 mph 64 % 0.00 in
15:11 78.4 °F 65.3 °F 29.92 in SE 11.0 mph 20.0 mph 64 % 0.00 in
15:16 78.3 °F 65.5 °F 29.92 in South 14.0 mph 20.0 mph 65 % 0.00 in
15:21 78.1 °F 65.8 °F 29.92 in South 13.0 mph 30.0 mph 66 % 0.00 in
15:26 77.2 °F 66.2 °F 29.92 in SE 6.0 mph 30.0 mph 69 % 0.01 in
15:31 76.6 °F 64.9 °F 29.92 in South 11.0 mph 30.0 mph 67 % 0.01 in
15:36 76.6 °F 64.9 °F 29.91 in SSE 10.0 mph 25.0 mph 67 % 0.01 in
15:41 76.6 °F 65.3 °F 29.91 in SSW 8.0 mph 25.0 mph 68 % 0.01 in
15:46 76.8 °F 65.8 °F 29.91 in SSE 11.0 mph 25.0 mph 69 % 0.01 in
15:51 76.8 °F 65.5 °F 29.91 in SSE 9.0 mph 25.0 mph 68 % 0.01 in
15:56 77.0 °F 65.7 °F 29.91 in SE 6.0 mph 22.0 mph 68 % 0.01 in
16:01 76.8 °F 65.5 °F 29.91 in SSE 17.0 mph 22.0 mph 68 % 0.01 in
16:06 76.6 °F 65.3 °F 29.91 in SW 13.0 mph 22.0 mph 68 % 0.01 in
16:11 76.6 °F 65.7 °F 29.91 in SSW 9.0 mph 20.0 mph 69 % 0.01 in
16:16 76.5 °F 66.4 °F 29.91 in SE 4.0 mph 20.0 mph 71 % 0.01 in
16:21 75.6 °F 66.4 °F 29.91 in SW 14.0 mph 22.0 mph 73 % 0.01 in
16:31 74.7 °F 65.8 °F 29.91 in SSE 2.0 mph 23.0 mph 74 % 0.00 in
16:36 74.5 °F 66.4 °F 29.91 in SE 13.0 mph 23.0 mph 76 % 0.00 in
16:41 73.9 °F 67.1 °F 29.91 in SE 5.0 mph 17.0 mph 79 % 0.01 in
16:42 73.9 °F 67.1 °F 29.91 in SSE 3.0 mph 17.0 mph 79 % 0.01 in
16:47 73.6 °F 67.5 °F 29.91 in SE 7.0 mph 17.0 mph 81 % 0.02 in
16:52 73.0 °F 67.3 °F 29.91 in SSE 13.0 mph 17.0 mph 82 % 0.02 in
16:57 72.7 °F 67.3 °F 29.91 in SE 9.0 mph 14.0 mph 83 % 0.03 in
17:02 72.1 °F 67.1 °F 29.90 in SSE 6.0 mph 16.0 mph 84 % 0.03 in
17:07 72.1 °F 67.5 °F 29.90 in SE 5.0 mph 16.0 mph 85 % 0.03 in
17:12 72.3 °F 67.3 °F 29.90 in SE 8.0 mph 16.0 mph 84 % 0.03 in
17:17 72.9 °F 67.1 °F 29.90 in SSE 8.0 mph 15.0 mph 82 % 0.03 in
17:22 73.2 °F 67.1 °F 29.90 in SSE 7.0 mph 15.0 mph 81 % 0.03 in
17:27 73.6 °F 67.5 °F 29.90 in South 9.0 mph 15.0 mph 81 % 0.03 in
17:32 73.8 °F 67.3 °F 29.90 in SE 11.0 mph 19.0 mph 80 % 0.03 in
17:37 73.9 °F 66.2 °F 29.89 in SSE 12.0 mph 23.0 mph 77 % 0.03 in
17:42 74.5 °F 66.7 °F 29.89 in SE 6.0 mph 23.0 mph 77 % 0.02 in
17:52 74.7 °F 66.9 °F 29.89 in ESE 8.0 mph 19.0 mph 77 % 0.01 in
17:57 74.7 °F 67.3 °F 29.89 in South 9.0 mph 19.0 mph 78 % 0.00 in
18:02 74.7 °F 67.6 °F 29.88 in SSE 4.0 mph 19.0 mph 79 % 0.00 in
18:12 74.8 °F 68.2 °F 29.88 in SSE 6.0 mph 18.0 mph 80 % 0.00 in
18:17 74.8 °F 68.5 °F 29.88 in SE 10.0 mph 18.0 mph 81 % 0.00 in
18:22 75.0 °F 68.7 °F 29.88 in SE 11.0 mph 17.0 mph 81 % 0.00 in
18:27 75.0 °F 68.7 °F 29.88 in South 8.0 mph 17.0 mph 81 % 0.00 in
18:32 74.8 °F 68.5 °F 29.88 in ESE 8.0 mph 17.0 mph 81 % 0.00 in
18:37 75.0 °F 68.7 °F 29.88 in SSE 9.0 mph 17.0 mph 81 % 0.00 in
18:42 75.0 °F 68.7 °F 29.87 in SSE 5.0 mph 17.0 mph 81 % 0.00 in
18:47 75.2 °F 68.9 °F 29.88 in SE 5.0 mph 17.0 mph 81 % 0.00 in
18:52 75.2 °F 68.9 °F 29.87 in SSE 8.0 mph 18.0 mph 81 % 0.00 in
18:57 75.4 °F 69.1 °F 29.87 in SE 6.0 mph 18.0 mph 81 % 0.00 in
19:02 75.4 °F 69.1 °F 29.87 in SE 10.0 mph 18.0 mph 81 % 0.00 in
19:07 75.4 °F 69.1 °F 29.87 in SSE 2.0 mph 17.0 mph 81 % 0.00 in
19:12 75.2 °F 68.9 °F 29.87 in SSE 5.0 mph 17.0 mph 81 % 0.00 in
19:17 75.2 °F 68.9 °F 29.87 in NE 10.0 mph 18.0 mph 81 % 0.00 in
19:22 75.2 °F 69.3 °F 29.87 in SSW 6.0 mph 18.0 mph 82 % 0.00 in
19:27 75.0 °F 69.1 °F 29.88 in SSE 6.0 mph 18.0 mph 82 % 0.00 in
19:32 75.0 °F 69.1 °F 29.88 in SSE 4.0 mph 18.0 mph 82 % 0.00 in
19:37 75.0 °F 69.1 °F 29.88 in SSE 5.0 mph 14.0 mph 82 % 0.00 in
19:42 75.0 °F 69.1 °F 29.88 in SW 3.0 mph 15.0 mph 82 % 0.00 in
19:47 75.0 °F 69.4 °F 29.88 in South 9.0 mph 17.0 mph 83 % 0.00 in
19:52 75.0 °F 69.4 °F 29.89 in SE 11.0 mph 17.0 mph 83 % 0.00 in
19:57 75.0 °F 69.4 °F 29.89 in South 7.0 mph 17.0 mph 83 % 0.00 in
20:02 75.0 °F 69.4 °F 29.89 in South 7.0 mph 17.0 mph 83 % 0.00 in
20:07 75.0 °F 69.4 °F 29.89 in South 9.0 mph 17.0 mph 83 % 0.00 in
20:12 75.0 °F 69.4 °F 29.90 in South 8.0 mph 19.0 mph 83 % 0.00 in
20:17 75.2 °F 69.6 °F 29.90 in SE 6.0 mph 19.0 mph 83 % 0.00 in
20:22 75.0 °F 69.4 °F 29.90 in South 12.0 mph 19.0 mph 83 % 0.00 in
20:27 75.2 °F 69.6 °F 29.90 in SSW 8.0 mph 16.0 mph 83 % 0.00 in
20:32 75.4 °F 69.4 °F 29.89 in SSE 10.0 mph 16.0 mph 82 % 0.00 in
20:37 75.4 °F 69.4 °F 29.90 in SSE 8.0 mph 16.0 mph 82 % 0.00 in
20:42 75.4 °F 69.4 °F 29.89 in South 10.0 mph 16.0 mph 82 % 0.00 in
20:47 75.4 °F 69.4 °F 29.89 in SSE 8.0 mph 16.0 mph 82 % 0.00 in
20:52 75.4 °F 69.4 °F 29.90 in South 7.0 mph 18.0 mph 82 % 0.00 in
20:57 75.4 °F 69.4 °F 29.90 in South 6.0 mph 18.0 mph 82 % 0.00 in
21:02 75.4 °F 69.8 °F 29.90 in SE 5.0 mph 18.0 mph 83 % 0.00 in
21:07 75.4 °F 69.8 °F 29.90 in SSE 3.0 mph 16.0 mph 83 % 0.00 in
21:12 75.4 °F 69.8 °F 29.90 in South 10.0 mph 14.0 mph 83 % 0.00 in
21:17 75.4 °F 69.8 °F 29.90 in SSE 6.0 mph 17.0 mph 83 % 0.00 in
21:22 75.4 °F 70.2 °F 29.91 in SSE 6.0 mph 17.0 mph 84 % 0.00 in
21:28 74.8 °F 70.0 °F 29.91 in South 6.0 mph 17.0 mph 85 % 0.04 in
21:33 73.9 °F 69.8 °F 29.91 in SSW 5.0 mph 16.0 mph 87 % 0.05 in
21:38 73.6 °F 70.2 °F 29.91 in South 9.0 mph 16.0 mph 89 % 0.05 in
21:43 73.2 °F 70.2 °F 29.91 in SSW 5.0 mph 16.0 mph 90 % 0.05 in
21:48 73.0 °F 70.0 °F 29.92 in South 12.0 mph 13.0 mph 90 % 0.06 in
21:53 72.3 °F 69.6 °F 29.91 in SE 10.0 mph 19.0 mph 91 % 0.11 in
21:58 72.1 °F 70.0 °F 29.92 in SSE 5.0 mph 19.0 mph 93 % 0.20 in
22:08 71.6 °F 69.8 °F 29.92 in East 6.0 mph 14.0 mph 94 % 0.20 in
22:13 71.2 °F 69.4 °F 29.93 in SSW 5.0 mph 10.0 mph 94 % 0.20 in
22:18 70.3 °F 68.2 °F 29.94 in SW 3.0 mph 10.0 mph 93 % 0.21 in
22:23 70.0 °F 67.8 °F 29.94 in SW 8.0 mph 11.0 mph 93 % 0.21 in
22:28 68.7 °F 65.7 °F 29.93 in SSW 1.0 mph 12.0 mph 90 % 0.17 in
22:33 67.6 °F 64.2 °F 29.93 in SSE 4.0 mph 16.0 mph 89 % 0.16 in
22:38 67.3 °F 63.7 °F 29.92 in SSE 5.0 mph 20.0 mph 88 % 0.16 in
22:43 67.1 °F 63.5 °F 29.93 in SSW 4.0 mph 20.0 mph 88 % 0.16 in
22:48 66.7 °F 63.1 °F 29.94 in SSE 2.0 mph 20.0 mph 88 % 0.15 in
22:53 66.7 °F 63.3 °F 29.94 in SSE 4.0 mph 14.0 mph 89 % 0.10 in
22:58 66.9 °F 63.9 °F 29.94 in SE 1.0 mph 6.0 mph 90 % 0.01 in
23:03 66.7 °F 63.3 °F 29.94 in Calm   5.0 mph 89 % 0.01 in
23:08 66.7 °F 63.3 °F 29.94 in Calm   5.0 mph 89 % 0.01 in
23:13 66.6 °F 63.1 °F 29.94 in Calm   4.0 mph 89 % 0.01 in
23:18 66.6 °F 63.5 °F 29.93 in Calm   1.0 mph 90 % 0.00 in
23:23 66.7 °F 64.0 °F 29.93 in Calm   1.0 mph 91 % 0.00 in
23:28 67.3 °F 64.9 °F 29.93 in South 2.0 mph 3.0 mph 92 % 0.00 in
23:33 67.8 °F 65.7 °F 29.94 in South 2.0 mph 4.0 mph 93 % 0.00 in
23:38 68.4 °F 66.2 °F 29.94 in South 3.0 mph 8.0 mph 93 % 0.00 in
23:43 68.7 °F 66.9 °F 29.94 in SSE 3.0 mph 8.0 mph 94 % 0.00 in
23:48 69.1 °F 67.3 °F 29.94 in SSW 7.0 mph 8.0 mph 94 % 0.00 in
23:53 69.4 °F 68.0 °F 29.94 in SSE 4.0 mph 8.0 mph 95 % 0.00 in
Spring, Texas: Villages of Bridgestone
Compliments of Weather Underground - 2.75 mb

Script developed by  Jim McMurry - jmcmurry@mwt.net Adapted for the template by  Wim van der Kuil - Leuven-Template.eu

You find our weather info also at:

UK Metoffice

WeatherCloud

Weather Underground

Mid-South Weather Network

AWEKAS

Citizen Weather Observer Program (CWOP)

HAMweather, WeatherForYou, PWS Weather

Equipment we use:

Weather-station
Davis Vantage Vue

Weather-program
Meteohub

Weather-server
Debian 7.9 x86 (Guest)

Provider
DreamHost

Davis Vantage Vue

Meteohub

Debian 7.9 x86 (Guest)

DreamHost